Voltar ao catálogo

STARLINK-38242

AtivoComunicaçõesSSO
NORAD 100266·PAYLOAD·🇺🇸 United States

Lançado Aug 8, 2026 de Vandenberg Space Force Base

Loading…

Próximas Passagens (próximas 24 horas)

TLE

AtualizadoSource: Space-Track

Época: Sep 14, 2026, 15:37 UTC

1 A0266U 26181W   26257.65133221  .00155976  00000-0  10272-2 0  9994
2 A0266  97.2833 301.0185 0001738  95.3377 264.8087 15.75198127  7030

Acompanhe STARLINK-38242 em tempo real com AllMySat

Download on the App Store